Simultaneous Nadir Overpasses (SNOs) Predictions

Prediction of SNOs between METOP-B and TERRA Satellite Orbit:

Table of predicted SNOs for the next 14.0 days since TLE Epoch: 9/27/2015
Index Date (METOP-B) Time (METOP-B) Lat,Lon (METOP-B) SZA (METOP-B ) Date (TERRA) Time (TERRA) Lat,Lon (TERRA) SZA (TERRA ) Distance(km) Time Diff (sec)
1 09/27/2015 08:19:52 81.32, 102.51 85.91 09/27/2015 08:19:56 81.32, 102.58 85.92 1.18 4
2 09/27/2015 09:10:31 -81.33, -89.47 93.99 09/27/2015 09:09:22 -81.33, -89.50 94.03 0.71 69
3 09/30/2015 03:03:33 -81.32, 1.59 92.99 09/30/2015 03:04:40 -81.32, 1.48 92.97 1.91 67
4 09/30/2015 03:54:13 81.32, 169.23 87.07 09/30/2015 03:54:06 81.33, 169.18 87.06 0.90 7
5 10/02/2015 22:37:54 -81.32, 67.89 91.89 10/02/2015 22:38:49 -81.33, 68.00 91.85 1.93 55
6 10/
